TimeHST,TemperatureF,Dew PointF,Humidity,Sea Level PressureIn,VisibilityMPH,Wind Direction,Wind SpeedMPH,Gust SpeedMPH,PrecipitationIn,Events,Conditions,WindDirDegrees,DateUTC
12:57 AM,69.3,67.5,94,29.95,7.0,Calm,Calm,-,N/A,,Scattered Clouds,0,2013-03-16 10:57:00
1:57 AM,69.3,64.9,86,29.93,7.0,West,4.6,-,N/A,,Mostly Cloudy,260,2013-03-16 11:57:00
2:57 AM,69.3,64.0,83,29.92,7.0,West,3.5,-,N/A,,Overcast,280,2013-03-16 12:57:00
3:57 AM,68.7,62.1,79,29.91,7.0,WNW,5.8,-,N/A,,Mostly Cloudy,290,2013-03-16 13:57:00
4:57 AM,68.7,57.9,68,29.92,7.0,WNW,8.1,-,N/A,,Mostly Cloudy,290,2013-03-16 14:57:00
5:57 AM,68.7,57.9,68,29.94,7.0,West,6.9,-,N/A,,Mostly Cloudy,270,2013-03-16 15:57:00
6:57 AM,68.7,55.9,64,29.96,7.0,WNW,8.1,-,N/A,,Mostly Cloudy,300,2013-03-16 16:57:00
7:57 AM,68.7,54.0,59,29.97,7.0,NNW,17.3,21.9,N/A,,Mostly Cloudy,330,2013-03-16 17:57:00
8:00 AM,-9999,-9999,N/A,-9999,-9999.0,North,-9999.0,-,N/A,,Unknown,0,2013-03-16 18:00:00
8:57 AM,69.8,54.0,57,29.99,7.0,WNW,4.6,-,N/A,,Mostly Cloudy,300,2013-03-16 18:57:00
9:57 AM,71.6,53.1,52,29.99,7.0,NW,10.4,-,N/A,,Mostly Cloudy,320,2013-03-16 19:57:00
10:57 AM,71.6,55.0,56,29.99,7.0,NNW,13.8,-,N/A,,Mostly Cloudy,340,2013-03-16 20:57:00
11:57 AM,77.0,55.0,47,29.97,7.0,NNW,13.8,-,N/A,,Mostly Cloudy,340,2013-03-16 21:57:00
12:57 PM,77.0,55.0,47,29.95,7.0,North,17.3,-,N/A,,Mostly Cloudy,350,2013-03-16 22:57:00
1:57 PM,77.0,57.0,50,29.94,7.0,NNW,16.1,24.2,N/A,,Scattered Clouds,340,2013-03-16 23:57:00
2:57 PM,77.0,57.0,50,29.91,7.0,North,12.7,-,N/A,,Scattered Clouds,350,2013-03-17 00:57:00
3:57 PM,77.0,55.0,47,29.91,7.0,North,17.3,-,N/A,,Clear,350,2013-03-17 01:57:00
4:57 PM,77.0,54.0,45,29.93,7.0,North,12.7,-,N/A,,Mostly Cloudy,350,2013-03-17 02:57:00
5:57 PM,77.0,54.0,45,29.94,7.0,NNW,11.5,19.6,N/A,,Mostly Cloudy,340,2013-03-17 03:57:00
6:57 PM,77.0,55.0,47,29.96,7.0,NNW,9.2,-,N/A,,Mostly Cloudy,330,2013-03-17 04:57:00
7:57 PM,73.4,55.0,52,29.98,7.0,NW,9.2,-,N/A,,Mostly Cloudy,320,2013-03-17 05:57:00
8:57 PM,71.6,55.0,56,30.01,7.0,WNW,8.1,-,N/A,,Mostly Cloudy,300,2013-03-17 06:57:00
9:57 PM,69.8,55.0,59,30.01,7.0,NNW,8.1,-,N/A,,Scattered Clouds,340,2013-03-17 07:57:00
10:57 PM,69.8,55.9,61,30.01,7.0,NNW,9.2,-,N/A,,Mostly Cloudy,330,2013-03-17 08:57:00
11:57 PM,69.8,55.0,59,30.00,7.0,NNW,9.2,-,N/A,,Mostly Cloudy,330,2013-03-17 09:57:00